Regional Weather Roundup
Issued by NWS

Home | Current Version | Previous Version | Text Only | Print | Product List | Glossary Off
Versions: 1 2 3 4 5 6 7 8 9 10 11 12 13 14 15 16 17 18 19 20 21 22 23 24 25 26 27 28 29 30 31 32 33 34 35 36 37 38 39 40 41 42 43 44 45 46 47 48 49 50

000
ASUS43 KIND 212009
RWRIN

WEATHER ROUNDUP FOR INDIANA
NATIONAL WEATHER SERVICE INDIANAPOLIS IN
400 PM EDT FRI JUL 21 2017

NOTE: "FAIR" INDICATES FEW OR NO CLOUDS BELOW 12,000 FEET WITH NO
SIGNIFICANT WEATHER AND/OR OBSTRUCTIONS TO VISIBILITY.

* - STATION DOES NOT REPORT WEATHER SUCH AS PRECIPITATION OR FOG.

+ - STATION NOT QUALITY CONTROLLED BY THE NATIONAL WEATHER SERVICE.
    USE DATA WITH CAUTION...ESPECIALLY DEWPOINT AND RELATIVE
    HUMIDITY OBSERVATIONS.

INZ001>003-010>013-019-020-212100-
NORTHWEST INDIANA

CITY           SKY/WX    TMP DP  RH WIND       PRES   REMARKS
GARY /AIRPORT/ PTSUNNY   88  63  42 SE8       29.97F
KNOX *+        MOSUNNY   84  72  65 S6        29.97F
LA PORTE +     CLOUDY    83  71  66 SE6       29.98F
MICHIGAN CITY+ CLOUDY    86  66  51 S5        29.98S
MONTICELLO +   SUNNY     82  75  78 SE5       29.98F
RENSSELAER +   PTSUNNY   82  72  69 SE6       29.98F
VALPARAISO     MOSUNNY   87  73  62 VRB6      29.98F

$$

LMZ046-743>745-212100-
SOUTHERN LAKE MICHIGAN

STATION/POSITION TIME  TEMP    WIND        PRES    WAVE
                       AIR SEA DIR/SP/G            HT
                 (UTC) (F)     (DEG/KT/KT) (MB)    (FT)
BURNS HARBOR     1940   81     160/  2/  6 1015.2S
MICHIGAN CITY    1940   83     190/  1/  4   N/A
5NW MICH CITY    2000   79 78   20/  4/  4   N/A     0

$$

INZ004-005-014>016-021>024-212100-
NORTH CENTRAL INDIANA

CITY           SKY/WX    TMP DP  RH WIND       PRES   REMARKS
ELKHART        MOSUNNY   86  64  48 CALM      29.98F
GOSHEN         MOSUNNY   85  65  51 S7        29.98F
LOGANSPORT +   CLOUDY    79  72  78 E3        30.01S
PERU/GRISSOM   CLOUDY    79  73  81 S7        29.98F
ROCHESTER +    CLOUDY    86  72  62 SE3       30.00S
SOUTH BEND     MOSUNNY   86  65  49 S10       29.98S
WARSAW +       CLOUDY    82  68  61 SW6       29.99F

$$

INZ006>009-017-018-025>027-212100-
NORTHEAST INDIANA

CITY           SKY/WX    TMP DP  RH WIND       PRES   REMARKS
AUBURN +       SUNNY     86  64  48 CALM      30.00S
FORT WAYNE     CLOUDY    83  70  64 SW12      30.00F
HUNTINGTON +   CLOUDY    80  74  81 SW6       29.99F
KENDALLVILLE + SUNNY     85  68  56 SW7       29.99F

$$

INZ028-029-035-036-043>045-051>053-212100-
WEST CENTRAL INDIANA

CITY           SKY/WX    TMP DP  RH WIND       PRES   REMARKS
GREENCASTLE +  MOSUNNY   86  73  66 CALM      29.99F
LAFAYETTE      MOSUNNY   85  73  67 S6        29.97F
TERRE HAUTE    MOSUNNY   93  76  57 S6        29.97F HX 105

$$

INZ030>032-037>040-046>048-054>057-064-065-212100-
CENTRAL INDIANA

CITY           SKY/WX    TMP DP  RH WIND       PRES   REMARKS
ANDERSON       MOSUNNY   86  73  66 N7        30.01F
CP ATTERBURY + SUNNY     90  70  51 CALM      29.99F HX  95
COLUMBUS       MOSUNNY   90  66  45 W5        29.99
FRANKFORT +    CLOUDY    87  76  70 CALM      30.01F HX  96
GREENWOOD *+   PTSUNNY   87  68  53 CALM      30.00F
INDIANAPOLIS   PTSUNNY   90  70  51 VRB7      29.98F HX  95
-EAGLE CREEK   PTSUNNY   89  72  56 N5        29.98F HX  96
KOKOMO +       CLOUDY    78  72  81 SE5       30.01F
MARION +       CLOUDY    75  70  83 CALM      30.02F
MT COMFORT *+  CLOUDY    84  72  65 CALM      30.01F
SHELBYVILLE    PTSUNNY   89  72  56 SW3       29.99F HX  96
ZIONSVILLE +   CLOUDY    83  74  73 NE5       30.00F

$$

INZ033-034-041-042-049-050-058-059-212100-
EAST CENTRAL INDIANA

CITY           SKY/WX    TMP DP  RH WIND       PRES   REMARKS
MUNCIE         CLOUDY    83  72  69 NW8       30.02F
RICHMOND +     SUNNY     82  72  69 W7        30.03F

$$

INZ060-061-067>069-081>083-085>088-212100-
SOUTHWEST INDIANA

CITY           SKY/WX    TMP DP  RH WIND       PRES   REMARKS
EVANSVILLE     MOSUNNY   96  73  47 SW10      29.96F HX 105
HUNTINGBURG *+ MOSUNNY   94  78  60 S8        29.98F HX 110

$$

INZ062-063-066-070>080-084-089>092-212100-
SOUTH CENTRAL AND SOUTHEAST INDIANA

CITY           SKY/WX    TMP DP  RH WIND       PRES   REMARKS
BEDFORD +      SUNNY     93  72  49 SW9       29.98F HX 100
BLOOMINGTON    SUNNY     93  74  53 SW6       29.98F HX 103
MADISON *+     MOSUNNY   93  72  49 S6        30.02S HX 100
NORTH VERNON + PTSUNNY   90  75  62 S6        30.00F HX 100
SEYMOUR +      SUNNY     93  73  52 S7        29.98F HX 102

$$





USA.gov is the U.S. government's official web portal to all federal, state and local government web resources and services.